Harrow, Ontario

2:10 AM EST on December 08, 2016 (GMT -0500)
Harrow

Weather History for CXHA - January, 2013

Change the Weather History Date:

Sunday, January 13, 2013

  Actual Average (CYQG) Record (CYQG)
Temperature  
Mean Temperature 39 °F -  
Max Temperature 42 °F 27 °F 55 °F (2005)
Min Temperature 35 °F 16 °F 0 °F (1999)
Degree Days  
Heating Degree Days 26    
Moisture  
Dew Point 40 °F    
Average Humidity 94    
Maximum Humidity 99    
Minimum Humidity 86    
Precipitation  
Precipitation 1.57 in - - ()
Sea Level Pressure  
Sea Level Pressure 29.85 in    
Wind  
Wind Speed 6 mph ()    
Max Wind Speed 16 mph    
Max Gust Speed 26 mph    
Averages and records for this station are not official NWS values.
T = Trace of Precipitation, MM = Missing Value Source: Averaged Metar Reports

Daily Weather History Graph

Daily Weather History Graph

Search for Another Location

Airport or City:

Trip Planner

Search our weather history database for the weather conditions in past years. The results will help you decide how hot, cold, wet, or windy it might be!

Date:

Astronomy

Jan. 13, 2013 Rise Set
Actual Time 7:57 AM EST 5:23 PM EST
Civil Twilight 7:26 AM EST 5:54 PM EST
Nautical Twilight 6:52 AM EST 6:28 PM EST
Astronomical Twilight 6:18 AM EST 7:02 PM EST
Moon 8:53 AM EST (1/13) 8:03 PM EST (1/13)
Length of Visible Light 10h 27m
Length of Day
9h 25m
Waxing Crescent, 5% of the Moon is Illuminated
Jan 13
Waxing Crescent
Jan 18
First Quarter
Jan 26
Full
Feb 3
Last Quarter
Feb 10
New

Hourly Weather History & Observations

Time (EST) Temp. Windchill Dew Point Humidity Pressure Visibility Wind Dir Wind Speed Gust Speed Precip Events Conditions
12:00 AM 48.6 °F - 48.2 °F 99% 29.83 in - NE 3.5 mph - 0.05 in   Unknown
1:00 AM 50 °F - 49 °F 96% 29.76 in - ENE 6.9 mph - -  
3:00 AM 52.3 °F - 52.0 °F 99% 29.72 in - NE 9.2 mph - 0.26 in   Unknown
5:00 AM 42.6 °F 34.9 °F 41.9 °F 97% 29.71 in - North 16.1 mph 26.5 mph 0.12 in   Unknown
6:00 AM 41.4 °F 34.7 °F 40.1 °F 95% 29.73 in - NNE 11.5 mph 18.4 mph 0.33 in   Unknown
7:00 AM 41 °F - 40 °F 93% 29.78 in - North 10.4 mph - -  
8:00 AM 41.4 °F 37.6 °F 39.6 °F 93% 29.78 in - North 5.8 mph - N/A   Unknown
9:00 AM 41.5 °F 39.6 °F 39.0 °F 91% 29.85 in - NNW 3.5 mph - N/A   Unknown
10:00 AM 41.9 °F - 38.1 °F 86% 29.85 in - WNW 2.3 mph - N/A   Unknown
11:00 AM 41.0 °F 37.1 °F 39.2 °F 93% 29.87 in - West 5.8 mph - N/A   Unknown
12:00 PM 40.6 °F 36.0 °F 38.7 °F 93% 29.86 in - West 6.9 mph - N/A   Unknown
1:00 PM 41 °F - 40 °F 93% 29.82 in - NW 4.6 mph - -  
1:00 PM 41.0 °F 38.0 °F 39.7 °F 95% 29.82 in - NW 4.6 mph - N/A   Unknown
2:00 PM 41.7 °F 37.3 °F 39.9 °F 93% 29.87 in - WNW 6.9 mph - N/A   Unknown
3:00 PM 41.4 °F 39.4 °F 39.4 °F 93% 29.83 in - North 3.5 mph - N/A   Unknown
4:00 PM 41.7 °F 39.8 °F 39.4 °F 91% 29.89 in - NW 3.5 mph - N/A   Unknown
5:00 PM 40.5 °F 38.4 °F 39.0 °F 95% 29.91 in - NW 3.5 mph - N/A   Unknown
6:00 PM 39.7 °F 35.6 °F 38.8 °F 97% 29.92 in - NW 5.8 mph - 0.04 in   Unknown
7:00 PM 39 °F - 38 °F 95% 29.91 in - North 3.5 mph - -  
7:00 PM 39.0 °F 36.8 °F 38.1 °F 97% 29.91 in - North 3.5 mph - 0.09 in   Unknown
8:00 PM 38.1 °F 35.7 °F 37.0 °F 96% 29.91 in - NNW 3.5 mph - 0.02 in   Unknown
9:00 PM 37.6 °F 33.1 °F 36.7 °F 97% 29.92 in - WNW 5.8 mph - 0.05 in   Unknown
10:00 PM 36.5 °F 27.8 °F 35.4 °F 96% 29.97 in - WNW 13.8 mph 21.9 mph 0.05 in   Unknown
11:00 PM 35.1 °F 27.4 °F 33.1 °F 92% 30.00 in - WNW 10.4 mph 18.4 mph N/A   Unknown